Hourly Data Report for October 07, 2016

All times are specified in Local Standard Time (LST). Add 1 hour to adjust for Daylight Saving Time where and when it is observed.

MONCTON INTL A
NEW BRUNSWICK

46°06'44.000" N
64°40'43.000" W
70.70 m
8103201
71705
YQM

Download Data

Hourly Data (October 2016)
Hourly Data Report for October 7, 2016
Temp Definition
°C
Dew Point Temp Definition
°C
Rel Hum Definition
%
Wind Dir Definition
10's deg

Wind Spd Definition
km/h
Visibility Definition
km
Stn Press Definition
kPa
Hmdx Definition


Wind Chill Definition


Weather Definition


TIME
00:00 Legend Double Dagger 10.6 9.5 93 22 14 24.1 101.37     LegendNANA
01:00 Legend Double Dagger 9.9 9.1 95 22 14 24.1 101.36     LegendNANA
02:00 Legend Double Dagger 10.6 9.7 94 24 15 24.1 101.37     Clear
03:00 Legend Double Dagger 10.3 9.2 93 23 16 24.1 101.38     LegendNANA
04:00 Legend Double Dagger 10.4 9.3 93 24 17 24.1 101.42     LegendNANA
05:00 Legend Double Dagger 9.4 8.8 96 22 18 24.1 101.42     Clear
06:00 Legend Double Dagger 8.4 7.8 96 21 13 24.1 101.46     LegendNANA
07:00 Legend Double Dagger 9.3 8.6 95 23 17 24.1 101.51     LegendNANA
08:00 Legend Double Dagger 10.8 9.4 91 22 20 24.1 101.55     Mostly Cloudy
09:00 Legend Double Dagger 13.4 11.0 85 22 14 24.1 101.56     LegendNANA
10:00 Legend Double Dagger 15.8 12.2 79 22 15 24.1 101.54     LegendNANA
11:00 Legend Double Dagger 18.7 13.0 69 24 13 24.1 101.53     Mostly Cloudy
12:00 Legend Double Dagger 21.1 13.9 63 24 13 24.1 101.48     LegendNANA
13:00 Legend Double Dagger 22.6 13.0 54 24 9 24.1 101.43 25   LegendNANA
14:00 Legend Double Dagger 23.8 11.0 44 27 11 24.1 101.41 26   Mostly Cloudy
15:00 Legend Double Dagger 23.6 11.2 45 22 13 24.1 101.39 25   LegendNANA
16:00 Legend Double Dagger 23.6 11.2 45 22 14 24.1 101.37 25   LegendNANA
17:00 Legend Double Dagger 21.6 11.5 52 23 16 24.1 101.38     Mostly Cloudy
18:00 Legend Double Dagger 18.5 11.4 63 23 14 24.1 101.39     LegendNANA
19:00 Legend Double Dagger 16.8 10.9 68 23 12 24.1 101.39     LegendNANA
20:00 Legend Double Dagger 15.8 10.8 72 20 12 24.1 101.41     Mostly Cloudy
21:00 Legend Double Dagger 14.4 10.1 75 23 14 24.1 101.42     LegendNANA
22:00 Legend Double Dagger 13.2 10.0 81 23 13 24.1 101.44     LegendNANA
23:00 Legend Double Dagger 11.7 9.6 87 24 12 24.1 101.43     Mainly Clear

Notes on Data Quality.

Legend

  • E = Estimated
  • M = Missing
  • NA = Not Available
  • ‡ = Partner data that is not subject to review by the National Climate Archives
Date modified: